Regional Weather Roundup
Issued by NWS

Home | Current Version | Previous Version | Text Only | Print | Product List | Glossary Off
Versions: 1 2 3 4 5 6 7 8 9 10 11 12 13 14 15 16 17 18 19 20 21 22 23 24 25 26 27 28 29 30 31 32 33 34 35 36 37 38 39 40 41 42 43 44 45 46 47 48 49 50

000
ASUS43 KDMX 051907
RWRIA

WEATHER ROUNDUP FOR IOWA
NATIONAL WEATHER SERVICE DES MOINES IA
200 PM CDT TUE MAY 05 2015

NOTE: "FAIR" INDICATES FEW OR NO CLOUDS BELOW 12,000 FEET WITH NO
SIGNIFICANT WEATHER AND/OR OBSTRUCTIONS TO VISIBILITY.

* - THESE STATIONS ARE NOT NWS STATIONS...THUS NOT UNDER NWS
QUALITY CONTROL.  THEY ALSO DO NOT REPORT WEATHER SUCH
AS PRECIPITATION OR FOG.

IAZ001>003-012>014-020>022-031>034-043>046-052000-
   NORTHWEST IOWA

CITY           SKY/WX    TMP DP  RH WIND       PRES   REMARKS
CARROLL *      PTSUNNY   73  63  68 S13       30.08F
CHEROKEE *     CLOUDY    66  61  84 S7        30.08F
DENISON *      PTSUNNY   73  64  73 S16       30.05F
LE MARS *      CLOUDY    64  59  82 S7        30.07F HAZE
ORANGE CITY *  CLOUDY    61  55  82 SE6       30.08F FOG
SHELDON *      CLOUDY    61  61 100 SE15      30.08S
SIOUX CITY     PTSUNNY   70  61  73 SE8       30.05F
SPENCER        LGT RAIN  60  58  92 E13       30.10F FOG
STORM LAKE *   CLOUDY    66  63  88 SE7       30.09F
$$

IAZ055>058-069>071-079>083-090>094-052000-
   SOUTHWEST IOWA

CITY           SKY/WX    TMP DP  RH WIND       PRES   REMARKS
ATLANTIC *     CLOUDY    73  61  64 S15G21    30.08S
AUDUBON *      PTSUNNY   73  63  68 S9        30.09F
CLARINDA *     PTSUNNY   73  63  68 S7        30.09F
COUNCIL BLFS * PTSUNNY   73  66  78 S12G20    30.07F
CRESTON *      CLOUDY    73  63  68 S13G20    30.10F
HARLAN  *      CLOUDY    73  68  83 S13G20    30.10F
LAMONI         MOSUNNY   77  61  57 SW8       30.10F
RED OAK *      PTSUNNY   73  61  64 S12       30.07F
SHENANDOAH *   PTSUNNY   75  63  64 S13       30.07F
$$

IAZ047>049-059>061-072>074-084-052000-
   CENTRAL IOWA

CITY           SKY/WX    TMP DP  RH WIND       PRES   REMARKS
AMES           CLOUDY    70  62  76 SE5       30.11F
ANKENY *       CLOUDY    75  61  60 VRB6G12   30.10S
CHARITON *     PTSUNNY   75  63  64 S12       30.11F
DES MOINES     CLOUDY    78  58  49 S12       30.09F
GRINNELL*      PTSUNNY   74  60  60 SW8       30.12F
KNOXVILLE *    PTSUNNY   75  61  60 S9G15     30.10S
MARSHALLTOWN   PTSUNNY   71  64  78 SE10      30.11F
PELLA *        PTSUNNY   78  65  64 S7        30.11F HX  80
PERRY *        CLOUDY    69  62  79 CALM      30.09F
$$

IAZ004>006-015-016-023>025-035-036-052000-
   NORTH CENTRAL IOWA

CITY           SKY/WX    TMP DP  RH WIND       PRES   REMARKS
ALGONA *       FOG       57  57 100 E13       30.13F VSB 3/4
CLARION *      CLOUDY    57  57 100 E16       30.13F FOG
ESTHERVILLE    CLOUDY    56  55  97 SE15      30.12S FOG
FORT DODGE *   CLOUDY    64  61  88 E10       30.11F
MASON CITY     LGT RAIN  55  54  96 E12       30.18S FOG
FOREST CITY *  DRIZZLE   54  54 100 E9        30.15F
IOWA FALLS *   FOG       58  57  96 E13       30.15F VSB 1/2
$$

IAZ007>011-017>019-026>030-037>042-050>054-066-052000-
   NORTHEAST IOWA

CITY           SKY/WX    TMP DP  RH WIND       PRES   REMARKS
CEDAR RAPIDS   CLOUDY    63  62  97 E13       30.14F FOG
CHARLES CITY * CLOUDY    54  54 100 E14       30.18S FOG
CLINTON *      PTSUNNY   64  59  82 E13       30.21F
DECORAH *      CLOUDY    54  52  94 E13       30.20S FOG
DUBUQUE        CLOUDY    55  53  93 E7        30.21R FOG
MONTICELLO *   CLOUDY    59  59 100 E9        30.18F
OELWEIN *      CLOUDY    55  54  94 E14       30.18F
WATERLOO       CLOUDY    57  55  93 E13       30.16F
$$

IAZ064-065-067-068-078-052000-
   EAST CENTRAL IOWA

CITY           SKY/WX    TMP DP  RH WIND       PRES   REMARKS
DAVENPORT      CLOUDY    66  61  84 E12       30.17F HAZE
MT. PLEASANT * PTSUNNY   78  62  57 S8        30.13F HX  80
MUSCATINE *    CLOUDY    75  63  64 E5        30.13F
QUAD CITIES    PTSUNNY   70  62  76 NE10      30.15F HAZE
$$

IAZ062-063-075>077-085>089-095>099-052000-
   SOUTHEAST IOWA

CITY           SKY/WX    TMP DP  RH WIND       PRES   REMARKS
BURLINGTON     PTSUNNY   79  61  53 W9        30.13S HX  80
FAIRFIELD *    CLOUDY    75  61  60 SW7       30.13S
FORT MADISON * PTSUNNY   79  64  61 S12       30.14S HX  81
KEOKUK *       MOSUNNY   77  64  65 SW3G14    30.12F
OSKALOOSA *    CLOUDY    76  63  62 S10       30.12S
CENTERVILLE *    N/A     77  63  61 SW9       30.13F
OTTUMWA        CLOUDY    75  61  61 S5        30.11F
WASHINGTON *   PTSUNNY   77  77 100 CALM      30.12F
$$

ABBREVIATIONS USED IN REMARKS
   TC - TEMPERATURES IN CELSIUS
  WCI - WIND CHILL INDEX
   HX - HEAT INDEX
  VSB - VISIBILITY
$$




USA.gov is the U.S. government's official web portal to all federal, state and local government web resources and services.